Home   Weather   Happy Valley-Goose Bay   Past weeks

Flag for Canada Past Weather in Happy Valley-Goose Bay, Newfoundland and Labrador, Canada — Yesterday and Last 2 Weeks

Now
19 °F

Scattered clouds.


Feels Like: 0 °F
Forecast: 15 / 32 °F
Wind: 31 mph from West

Location: Goose

Current Time: Apr 25, 2017 at 9:46:09 am

Latest Report: Apr 25, 2017 at 9:00 am


Visibility: 15 mi

Pressure: 30.14 "Hg

Humidity: 49%

Dew Point: 3 °F

Location of Happy Valley-Goose BayLocation

Past Weather in Happy Valley-Goose Bay — Graph

°F

Happy Valley-Goose Bay Temperature Yesterday

Maximum temperature yesterday: 37 °F (at 3:36 am)
Minimum temperature yesterday: 19 °F (at 10:00 pm)
Average temperature yesterday: 28 °F

High & Low Weather Summary for the Past Weeks

 TemperatureHumidityPressure
High50 °F (Apr 10, 5:00 pm)100% (Apr 11, 4:43 am)30.54 "Hg (Apr 11, 4:43 am)
Low5 °F (Apr 18, 5:00 am)23% (Apr 19, 4:00 pm)29.58 "Hg (Apr 24, 5:32 am)
Average29 °F67%30.14 "Hg
* Reported Apr 10 8:00 am — Apr 25 8:00 am, Happy Valley-Goose Bay, Weather by CustomWeather, © 2017

Note: Actual official high and low records may vary slightly from our data, if they occured in-between our weather recording intervals... More about our weather records

Advertising

Happy Valley-Goose Bay Weather History for the Previous 24 Hours

Scroll right to see more
 ConditionsComfort  
Time TempWeatherWind HumidityBarometerVisibility
8:00 am
Tue, Apr 25
18 °FPartly sunny.26 mph53%30.13 "Hg15 mi
7:00 am18 °FOvercast.23 mph53%30.10 "Hg15 mi
6:00 am16 °FOvercast.18 mph62%30.07 "Hg15 mi
5:00 am16 °FPassing clouds.21 mph57%30.04 "Hg15 mi
4:00 am16 °FPassing clouds.15 mph53%30.03 "Hg15 mi
3:00 am16 °FPassing clouds.24 mph53%30.02 "Hg15 mi
2:00 am18 °FPassing clouds.23 mph53%30.01 "Hg15 mi
1:00 am18 °FPassing clouds.18 mph58%30.00 "Hg15 mi
12:00 am18 °FPassing clouds.17 mph53%30.00 "Hg15 mi
11:00 pm
Mon, Apr 24
19 °FPassing clouds.23 mph45%30.00 "Hg15 mi
10:00 pm19 °FPassing clouds.17 mph49%29.98 "Hg15 mi
9:00 pm21 °FPassing clouds.21 mph42%29.96 "Hg15 mi
8:00 pm21 °FPartly sunny.17 mph45%29.93 "Hg15 mi
7:00 pm23 °FPartly sunny.20 mph50%29.90 "Hg15 mi
6:00 pm25 °FPartly sunny.24 mph36%29.88 "Hg15 mi
5:00 pm25 °FPartly sunny.28 mph39%29.87 "Hg15 mi
4:00 pm25 °FPartly sunny.29 mph42%29.85 "Hg15 mi
3:00 pm27 °FPartly sunny.29 mph43%29.83 "Hg15 mi
2:00 pm27 °FPartly sunny.25 mph43%29.80 "Hg15 mi
1:00 pm27 °FPartly sunny.28 mph43%29.78 "Hg15 mi
12:00 pm25 °FPartly sunny.18 mph46%29.77 "Hg15 mi
11:00 am25 °FBroken clouds.26 mph50%29.76 "Hg15 mi
10:00 am25 °FOvercast.31 mph54%29.73 "Hg12 mi
9:36 am27 °FMostly cloudy.28 mph59%29.72 "Hg10 mi
9:00 am27 °FMore clouds than sun.29 mph59%29.70 "Hg12 mi
Weather by CustomWeather, © 2017

See weather overviewHow to use our weather pages